GW1851 Weather Reports


Display with metric or nautical units.
time (UTC)temp
F
wind
direction
speed
MPH
gust
MPH
rain 1hr
in
rain 24hr
in
rain mn
in
humidity
%
barometer
mb
20260905203416 94 221 0.0 0.0 0.00 0.00 0.00 68 1013.4
20260905202912 94 213 1.0 1.0 0.00 0.00 0.00 68 1013.5
20260905202407 94 145 0.0 1.0 0.00 0.00 0.00 65 1013.5
20260905201902 94 245 2.0 2.0 0.00 0.00 0.00 65 1013.6
20260905201357 95 233 3.0 3.0 0.00 0.00 0.00 64 1013.5
20260905200851 95 239 1.0 1.0 0.00 0.00 0.00 64 1013.6
20260905200348 95 61 3.0 3.0 0.00 0.00 0.00 65 1013.6
20260905195846 95 219 1.0 1.0 0.00 0.00 0.00 67 1013.7
20260905195341 95 232 0.0 0.0 0.00 0.00 0.00 66 1013.7
20260905194837 95 222 0.0 0.0 0.00 0.00 0.00 69 1013.8
20260905194336 94 182 1.0 1.0 0.00 0.00 0.00 70 1013.9
20260905193836 94 280 1.0 2.0 0.00 0.00 0.00 67 1013.8
20260905193331 94 246 1.0 2.0 0.00 0.00 0.00 67 1013.7
20260905192827 95 246 2.0 2.0 0.00 0.00 0.00 65 1013.9
20260905192322 95 220 0.0 0.0 0.00 0.00 0.00 64 1013.8
20260905191821 95 255 1.0 1.0 0.00 0.00 0.00 66 1013.8
20260905191320 95 219 1.0 2.0 0.00 0.00 0.00 66 1013.8
20260905190819 96 222 0.0 1.0 0.00 0.00 0.00 68 1013.8
20260905190313 96 218 0.0 0.0 0.00 0.00 0.00 63 1013.8
20260905185811 95 228 0.0 0.0 0.00 0.00 0.00 65 1013.7
20260905185307 95 252 1.0 1.0 0.00 0.00 0.00 63 1013.8
20260905184801 95 258 1.0 1.0 0.00 0.00 0.00 66 1013.8
20260905184259 95 287 2.0 3.0 0.00 0.00 0.00 63 1014.1
20260905183753 96 241 1.0 2.0 0.00 0.00 0.00 62 1014.1
20260905183248 96 219 1.0 1.0 0.00 0.00 0.00 60 1014.1
20260905182747 95 243 3.0 5.0 0.00 0.00 0.00 63 1014.2
20260905182242 96 235 4.0 5.0 0.00 0.00 0.00 61 1014.2
20260905181737 96 211 1.0 1.0 0.00 0.00 0.00 60 1014.5
20260905181236 96 220 1.0 1.0 0.00 0.00 0.00 62 1014.4
20260905180732 95 255 2.0 2.0 0.00 0.00 0.00 63 1014.5
20260905180227 95 99 2.0 3.0 0.00 0.00 0.00 62 1014.4
20260905175726 95 92 3.0 3.0 0.00 0.00 0.00 64 1014.3
20260905175221 95 258 1.0 2.0 0.00 0.00 0.00 65 1014.4
20260905174716 95 221 1.0 1.0 0.00 0.00 0.00 63 1014.5
20260905174212 95 145 3.0 3.0 0.00 0.00 0.00 63 1014.5
20260905173708 95 196 1.0 1.0 0.00 0.00 0.00 62 1014.7
20260905173203 95 263 3.0 3.0 0.00 0.00 0.00 63 1015.0
20260905172703 95 268 3.0 3.0 0.00 0.00 0.00 64 1014.3
20260905172157 95 261 3.0 5.0 0.00 0.00 0.00 62 1014.6
20260905171653 95 343 3.0 5.0 0.00 0.00 0.00 63 1014.4
20260905171149 95 290 1.0 2.0 0.00 0.00 0.00 64 1014.4
20260905170646 95 213 0.0 1.0 0.00 0.00 0.00 62 1014.7
20260905170141 95 295 2.0 5.0 0.00 0.00 0.00 63 1014.5
20260905165640 94 300 2.0 2.0 0.00 0.00 0.00 66 1014.8
20260905165136 95 162 1.0 1.0 0.00 0.00 0.00 66 1014.8
20260905164631 95 165 0.0 0.0 0.00 0.00 0.00 66 1014.7
20260905164130 95 299 1.0 2.0 0.00 0.00 0.00 66 1014.5
20260905163626 95 308 1.0 1.0 0.00 0.00 0.00 63 1014.7
20260905163122 94 216 2.0 2.0 0.00 0.00 0.00 66 1014.7
20260905162618 94 228 1.0 2.0 0.00 0.00 0.00 65 1014.5
20260905162118 94 215 2.0 2.0 0.00 0.00 0.00 66 1014.7
20260905161617 94 232 1.0 1.0 0.00 0.00 0.00 66 1014.6
20260905161115 93 300 2.0 2.0 0.00 0.00 0.00 66 1014.7
20260905160615 93 216 1.0 2.0 0.00 0.00 0.00 67 1014.8
20260905160109 92 226 1.0 1.0 0.00 0.00 0.00 68 1015.1
20260905155604 93 259 4.0 5.0 0.00 0.00 0.00 66 1015.0
20260905155102 93 244 1.0 1.0 0.00 0.00 0.00 66 1014.7
20260905154557 93 220 1.0 1.0 0.00 0.00 0.00 69 1014.7
20260905154053 92 209 0.0 0.0 0.00 0.00 0.00 68 1014.7
20260905153548 92 234 1.0 1.0 0.00 0.00 0.00 69 1014.6
20260905153048 91 223 0.0 1.0 0.00 0.00 0.00 70 1014.4
20260905152543 91 228 2.0 2.0 0.00 0.00 0.00 69 1014.6
20260905152038 91 243 3.0 3.0 0.00 0.00 0.00 69 1014.6
20260905151533 91 145 1.0 1.0 0.00 0.00 0.00 69 1014.6
20260905151029 91 227 1.0 1.0 0.00 0.00 0.00 70 1014.7
20260905150524 90 208 0.0 0.0 0.00 0.00 0.00 71 1014.6
20260905150021 90 253 2.0 2.0 0.00 0.00 0.00 73 1014.5
20260905145514 91 243 3.0 3.0 0.00 0.00 0.00 71 1014.4
20260905145009 90 235 0.0 1.0 0.00 0.00 0.00 74 1014.4
20260905144504 90 212 1.0 1.0 0.00 0.00 0.00 76 1014.2
20260905144003 89 213 0.0 0.0 0.00 0.00 0.00 75 1014.5
20260905143502 89 209 1.0 1.0 0.00 0.00 0.00 76 1014.0
20260905142957 87 240 2.0 2.0 0.00 0.00 0.00 75 1014.0
20260905142456 88 227 1.0 1.0 0.00 0.00 0.00 77 1014.0
20260905141951 87 229 2.0 2.0 0.00 0.00 0.00 76 1013.9
20260905141446 87 224 1.0 2.0 0.00 0.00 0.00 76 1014.0
20260905140943 86 212 0.0 1.0 0.00 0.00 0.00 78 1014.1
20260905140437 86 214 0.0 0.0 0.00 0.00 0.00 78 1014.0
20260905135936 86 215 1.0 1.0 0.00 0.00 0.00 78 1014.1
20260905135432 85 210 0.0 0.0 0.00 0.00 0.00 79 1013.9
20260905134927 85 224 0.0 0.0 0.00 0.00 0.00 80 1013.9
20260905134426 84 218 0.0 0.0 0.00 0.00 0.00 82 1014.0
20260905133920 84 212 0.0 0.0 0.00 0.00 0.00 83 1014.0
20260905133415 84 205 0.0 0.0 0.00 0.00 0.00 83 1014.1
20260905132914 84 213 0.0 0.0 0.00 0.00 0.00 84 1014.4
20260905132410 81 210 0.0 0.0 0.00 0.00 0.00 88 1014.4
20260905131904 81 218 0.0 0.0 0.00 0.00 0.00 90 1014.2
20260905131400 79 213 0.0 0.0 0.00 0.00 0.00 93 1014.2
20260905130855 78 212 0.0 0.0 0.00 0.00 0.00 98 1014.2
20260905130354 76 216 0.0 0.0 0.00 0.00 0.00 99 1014.1
20260905125849 77 216 0.0 0.0 0.00 0.00 0.00 99 1014.1
20260905125344 76 216 0.0 0.0 0.00 0.00 0.00 99 1014.3
20260905124840 75 217 0.0 0.0 0.00 0.00 0.00 99 1014.3
20260905124336 75 217 0.0 0.0 0.00 0.00 0.00 99 1014.2
20260905123836 75 217 0.0 0.0 0.00 0.00 0.00 99 1014.0
20260905123333 75 217 0.0 0.0 0.00 0.00 0.00 99 1014.0
20260905122833 74 217 0.0 0.0 0.00 0.00 0.00 99 1014.0
20260905122332 74 216 0.0 0.0 0.00 0.00 0.00 99 1014.1
20260905121827 74 218 0.0 0.0 0.00 0.00 0.00 99 1014.0
20260905121324 74 218 0.0 0.0 0.00 0.00 0.00 99 1014.0
20260905120822 74 218 0.0 0.0 0.00 0.00 0.00 99 1013.9
20260905120317 74 218 0.0 0.0 0.00 0.00 0.00 99 1013.7
20260905115812 73 218 0.0 0.0 0.00 0.00 0.00 99 1013.6
20260905115312 73 217 0.0 0.0 0.00 0.00 0.00 99 1013.7
20260905114812 74 215 0.0 0.0 0.00 0.00 0.00 99 1013.7
20260905114311 74 215 0.0 0.0 0.00 0.00 0.00 99 1013.7
20260905113810 73 215 0.0 0.0 0.00 0.00 0.00 99 1013.7
20260905113306 73 215 0.0 0.0 0.00 0.00 0.00 99 1013.8
20260905112801 73 215 0.0 0.0 0.00 0.00 0.00 99 1013.3
20260905112255 74 215 0.0 0.0 0.00 0.00 0.00 99 1013.5
20260905111750 74 216 0.0 0.0 0.00 0.00 0.00 99 1013.9
20260905111245 74 216 0.0 0.0 0.00 0.00 0.00 99 1013.5
20260905110744 74 217 0.0 0.0 0.00 0.00 0.00 99 1013.4
20260905110238 74 217 0.0 0.0 0.00 0.00 0.00 99 1013.4
20260905105734 74 227 0.0 0.0 0.00 0.00 0.00 99 1013.4
20260905105233 74 221 0.0 0.0 0.00 0.00 0.00 99 1013.5
20260905104728 74 212 0.0 0.0 0.00 0.00 0.00 99 1013.5
20260905104224 74 226 0.0 0.0 0.00 0.00 0.00 99 1013.3
20260905103719 74 217 0.0 0.0 0.00 0.00 0.00 99 1013.4
20260905103215 74 216 0.0 0.0 0.00 0.00 0.00 99 1013.5
20260905102710 74 225 0.0 0.0 0.00 0.00 0.00 99 1013.4
20260905102207 74 225 0.0 0.0 0.00 0.00 0.00 99 1013.4
20260905101705 74 225 0.0 0.0 0.00 0.00 0.00 99 1013.4
20260905101204 74 225 0.0 0.0 0.00 0.00 0.00 99 1013.6
20260905100701 74 225 0.0 0.0 0.00 0.00 0.00 99 1013.4
20260905100155 74 225 0.0 0.0 0.00 0.00 0.00 99 1013.5
20260905095654 74 225 0.0 0.0 0.00 0.00 0.00 99 1013.4
20260905095149 74 225 0.0 0.0 0.00 0.00 0.00 99 1013.3
20260905094644 74 225 0.0 0.0 0.00 0.00 0.00 99 1013.3
20260905094143 74 225 0.0 0.0 0.00 0.00 0.00 99 1013.2
20260905093638 74 225 0.0 0.0 0.00 0.00 0.00 99 1013.5
20260905093135 74 225 0.0 0.0 0.00 0.00 0.00 99 1013.4
20260905092634 74 225 0.0 0.0 0.00 0.00 0.00 99 1013.5
20260905092130 74 225 0.0 0.0 0.00 0.00 0.00 99 1013.6
20260905091629 74 225 0.0 0.0 0.00 0.00 0.00 99 1013.6
20260905091124 74 225 0.0 0.0 0.00 0.00 0.00 99 1013.5
20260905090619 75 225 0.0 0.0 0.00 0.00 0.00 99 1013.7
20260905090114 74 225 0.0 0.0 0.00 0.00 0.00 99 1013.7
20260905085612 75 225 0.0 0.0 0.00 0.00 0.00 99 1013.4
20260905085109 75 225 0.0 0.0 0.00 0.00 0.00 99 1013.7
20260905084607 75 225 0.0 0.0 0.00 0.00 0.00 99 1013.5
20260905084103 75 225 0.0 0.0 0.00 0.00 0.00 99 1013.5
20260905083557 75 225 0.0 0.0 0.00 0.00 0.00 99 1013.7
20260905083054 75 225 0.0 0.0 0.00 0.00 0.00 99 1013.7
20260905082549 75 225 0.0 0.0 0.00 0.00 0.00 99 1013.8
20260905082045 75 225 0.0 0.0 0.00 0.00 0.00 99 1013.7
20260905081544 75 225 0.0 0.0 0.00 0.00 0.00 99 1013.9
20260905081039 75 225 0.0 0.0 0.00 0.00 0.00 99 1013.9
20260905080538 75 225 0.0 0.0 0.00 0.00 0.00 99 1013.6
20260905080033 75 225 0.0 0.0 0.00 0.00 0.00 99 1013.7
20260905075526 75 225 0.0 0.0 0.00 0.00 0.00 99 1013.9
20260905075021 75 225 0.0 0.0 0.00 0.00 0.00 99 1013.8
20260905074516 75 225 0.0 0.0 0.00 0.00 0.00 99 1013.8
20260905074011 75 225 0.0 0.0 0.00 0.00 0.00 99 1013.6
20260905073506 75 225 0.0 0.0 0.00 0.00 0.00 99 1014.1
20260905073002 75 225 0.0 0.0 0.00 0.00 0.00 99 1013.9
20260905072456 75 225 0.0 0.0 0.00 0.00 0.00 99 1014.1
20260905071951 75 225 0.0 0.0 0.00 0.00 0.00 99 1014.0
20260905071449 75 225 0.0 0.0 0.00 0.00 0.00 99 1014.1
20260905070947 76 225 0.0 0.0 0.00 0.00 0.00 99 1014.0
20260905070444 76 225 0.0 0.0 0.00 0.00 0.00 99 1014.2
20260905065938 76 225 0.0 0.0 0.00 0.00 0.00 99 1013.9
20260905065436 76 225 0.0 0.0 0.00 0.00 0.00 99 1014.1
20260905064932 76 225 0.0 0.0 0.00 0.00 0.00 99 1014.0
20260905064426 76 225 0.0 0.0 0.00 0.00 0.00 99 1014.0
20260905063921 76 225 0.0 0.0 0.00 0.00 0.00 99 1013.7
20260905063415 76 225 0.0 0.0 0.00 0.00 0.00 99 1013.7
20260905062912 76 225 0.0 0.0 0.00 0.00 0.00 99 1013.9
20260905062406 76 225 0.0 0.0 0.00 0.00 0.00 99 1014.0
20260905061901 76 225 0.0 0.0 0.00 0.00 0.00 99 1014.0
20260905061400 76 225 0.0 0.0 0.00 0.00 0.00 99 1014.0
20260905060855 76 225 0.0 0.0 0.00 0.00 0.00 99 1013.9
20260905060352 76 225 0.0 0.0 0.00 0.00 0.00 99 1014.1
20260905055851 77 225 0.0 0.0 0.00 0.00 0.00 99 1014.1
20260905055347 77 225 0.0 0.0 0.00 0.00 0.00 99 1014.2
20260905054846 77 225 0.0 0.0 0.00 0.00 0.00 99 1014.2
20260905054342 77 225 0.0 0.0 0.00 0.00 0.00 99 1014.4
20260905053842 77 225 0.0 0.0 0.00 0.00 0.00 99 1014.2
20260905053342 77 225 0.0 0.0 0.00 0.00 0.00 99 1014.1
20260905052837 77 225 0.0 0.0 0.00 0.00 0.00 99 1014.0
20260905052337 77 225 0.0 0.0 0.00 0.00 0.00 99 1014.2
20260905051836 77 225 0.0 0.0 0.00 0.00 0.00 99 1014.0
20260905051332 77 225 0.0 0.0 0.00 0.00 0.00 99 1014.2
20260905050830 78 224 0.0 0.0 0.00 0.00 0.00 99 1014.1
20260905050325 78 223 0.0 0.0 0.00 0.00 0.00 99 1013.9
20260905045825 77 221 0.0 0.0 0.00 0.00 0.00 99 1014.0
20260905045321 78 221 0.0 0.0 0.00 0.00 0.00 99 1013.9
20260905044816 78 221 0.0 0.0 0.00 0.00 0.00 99 1013.8
20260905044311 78 221 0.0 0.0 0.00 0.00 0.00 99 1013.8
20260905043810 78 221 0.0 0.0 0.00 0.00 0.00 99 1013.8
20260905043305 78 220 0.0 0.0 0.00 0.00 0.00 99 1013.7
20260905042805 78 220 0.0 0.0 0.00 0.00 0.00 99 1013.6
20260905042259 78 220 0.0 0.0 0.00 0.00 0.00 99 1013.4
20260905041754 78 220 0.0 0.0 0.00 0.00 0.00 99 1013.2
20260905041250 78 220 0.0 0.0 0.00 0.00 0.00 99 1013.5
20260905040744 78 220 0.0 0.0 0.00 0.00 0.00 99 1013.4
20260905040243 78 220 0.0 0.0 0.00 0.00 0.00 99 1013.6
20260905035738 79 220 0.0 0.0 0.00 0.00 0.00 99 1013.8
20260905035234 79 220 0.0 0.0 0.00 0.00 0.00 99 1013.6
20260905034731 79 220 0.0 0.0 0.00 0.00 0.00 99 1013.8
20260905034230 79 220 0.0 0.0 0.00 0.00 0.00 99 1013.9
20260905033729 79 220 0.0 0.0 0.00 0.00 0.00 99 1013.9
20260905033219 79 220 0.0 0.0 0.00 0.00 0.00 99 1014.1
20260905032718 79 220 0.0 0.0 0.00 0.00 0.00 99 1014.2
20260905032214 79 220 0.0 0.0 0.00 0.00 0.00 98 1014.1
20260905031709 79 220 0.0 0.0 0.00 0.00 0.00 98 1014.1
20260905031205 79 220 0.0 0.0 0.00 0.00 0.00 98 1014.1
20260905030700 79 220 0.0 0.0 0.00 0.00 0.00 98 1014.0
20260905030155 79 220 0.0 0.0 0.00 0.00 0.00 98 1014.0
20260905025649 79 220 0.0 0.0 0.00 0.00 0.00 98 1013.6
20260905025145 80 220 0.0 0.0 0.00 0.00 0.00 98 1013.8
20260905024641 80 220 0.0 0.0 0.00 0.00 0.00 98 1013.9
20260905024136 80 220 0.0 0.0 0.00 0.00 0.00 98 1013.9
20260905023632 80 220 0.0 0.0 0.00 0.00 0.00 97 1013.7
20260905023131 80 220 0.0 0.0 0.00 0.00 0.00 97 1013.6
20260905022630 80 220 0.0 0.0 0.00 0.00 0.00 97 1013.5
20260905022125 80 220 0.0 0.0 0.00 0.00 0.00 97 1013.5
20260905021620 80 220 0.0 0.0 0.00 0.00 0.00 97 1013.6
20260905021116 80 220 0.0 0.0 0.00 0.00 0.00 96 1013.7
20260905020615 80 220 0.0 0.0 0.00 0.00 0.00 96 1013.4
20260905020110 81 220 0.0 0.0 0.00 0.00 0.00 96 1013.4
20260905015609 81 220 0.0 0.0 0.00 0.00 0.00 96 1013.4
20260905015103 81 220 0.0 0.0 0.00 0.00 0.00 95 1013.4
20260905014557 82 220 0.0 0.0 0.00 0.00 0.00 95 1013.3
20260905014053 82 220 0.0 0.0 0.00 0.00 0.00 95 1013.2
20260905013549 82 220 0.0 0.0 0.00 0.00 0.00 94 1013.3
20260905013045 82 220 0.0 0.0 0.00 0.00 0.00 94 1013.2
20260905012544 82 220 0.0 0.0 0.00 0.00 0.00 94 1013.2
20260905012042 82 220 0.0 0.0 0.00 0.00 0.00 93 1012.9
20260905011537 82 220 0.0 0.0 0.00 0.00 0.00 93 1013.1
20260905011032 83 220 0.0 0.0 0.00 0.00 0.00 93 1012.8
20260905010527 83 220 0.0 0.0 0.00 0.00 0.00 92 1013.2
20260905010024 83 220 0.0 0.0 0.00 0.00 0.00 92 1012.9
20260905005519 83 220 0.0 0.0 0.00 0.00 0.00 92 1013.1
20260905005014 84 220 0.0 0.0 0.00 0.00 0.00 91 1013.2
20260905004509 84 220 0.0 0.0 0.00 0.00 0.00 91 1013.1
20260905004004 84 220 0.0 0.0 0.00 0.00 0.00 90 1012.9
20260905003500 85 220 0.0 0.0 0.00 0.00 0.00 89 1012.8
20260905002955 85 220 0.0 0.0 0.00 0.00 0.00 88 1012.8
20260905002450 86 220 0.0 0.0 0.00 0.00 0.00 87 1012.9
20260905001949 86 219 0.0 0.0 0.00 0.00 0.00 86 1012.9
20260905001444 87 219 0.0 0.0 0.00 0.00 0.00 85 1012.8
20260905000939 87 219 0.0 0.0 0.00 0.00 0.00 84 1012.8
20260905000435 88 219 0.0 0.0 0.00 0.00 0.00 82 1012.9
20260904235930 88 219 0.0 0.0 0.00 0.00 0.00 80 1013.0
20260904235425 89 219 0.0 0.0 0.00 0.00 0.00 77 1012.7
20260904234919 89 219 0.0 0.0 0.00 0.00 0.00 77 1012.8
20260904234414 90 219 0.0 0.0 0.00 0.00 0.00 74 1013.0
20260904233910 90 219 0.0 0.0 0.00 0.00 0.00 73 1012.9
20260904233405 91 219 0.0 0.0 0.00 0.00 0.00 72 1012.9
20260904232902 91 219 0.0 0.0 0.00 0.00 0.00 72 1012.9
20260904232358 91 219 0.0 0.0 0.00 0.00 0.00 73 1012.9
20260904231854 91 210 0.0 0.0 0.00 0.00 0.00 71 1012.7
20260904231349 92 220 0.0 0.0 0.00 0.00 0.00 71 1012.8
20260904230844 92 220 0.0 0.0 0.00 0.00 0.00 70 1013.1
20260904230342 92 220 0.0 0.0 0.00 0.00 0.00 69 1013.2
20260904225837 92 219 0.0 0.0 0.00 0.00 0.00 69 1013.0
20260904225335 92 219 0.0 0.0 0.00 0.00 0.00 68 1013.1
20260904224829 92 219 0.0 0.0 0.00 0.00 0.00 68 1013.0
20260904224325 92 222 0.0 0.0 0.00 0.00 0.00 67 1013.1
20260904223824 93 222 0.0 0.0 0.00 0.00 0.00 67 1013.0
20260904223319 93 222 0.0 0.0 0.00 0.00 0.00 66 1013.1
20260904222816 93 221 0.0 0.0 0.00 0.00 0.00 63 1013.1
20260904222316 93 216 0.0 0.0 0.00 0.00 0.00 65 1013.1
20260904221810 93 215 0.0 0.0 0.00 0.00 0.00 65 1013.0
20260904221310 94 219 0.0 0.0 0.00 0.00 0.00 63 1013.0
20260904220806 94 210 0.0 0.0 0.00 0.00 0.00 62 1013.0
20260904220305 94 224 0.0 0.0 0.00 0.00 0.00 64 1013.0
20260904215800 94 211 0.0 0.0 0.00 0.00 0.00 61 1013.1
20260904215255 94 217 1.0 1.0 0.00 0.00 0.00 62 1013.0
20260904214751 94 215 0.0 1.0 0.00 0.00 0.00 59 1013.0
20260904214247 94 213 0.0 1.0 0.00 0.00 0.00 61 1013.1
20260904213744 94 212 0.0 0.0 0.00 0.00 0.00 61 1013.0
20260904213241 95 229 2.0 2.0 0.00 0.00 0.00 62 1013.1
20260904212736 95 216 0.0 0.0 0.00 0.00 0.00 59 1013.2
20260904212236 95 231 0.0 0.0 0.00 0.00 0.00 61 1013.2
20260904211731 95 219 0.0 0.0 0.00 0.00 0.00 58 1013.3
20260904211226 95 217 1.0 1.0 0.00 0.00 0.00 58 1013.5
20260904210721 95 219 0.0 0.0 0.00 0.00 0.00 60 1013.5
20260904210216 96 236 2.0 2.0 0.00 0.00 0.00 59 1013.7
20260904205712 96 210 0.0 0.0 0.00 0.00 0.00 58 1013.9
20260904205208 97 212 0.0 0.0 0.00 0.00 0.00 59 1013.8
20260904204704 97 232 0.0 1.0 0.00 0.00 0.00 55 1013.9
20260904204200 98 227 0.0 0.0 0.00 0.00 0.00 55 1013.9
20260904203655 98 216 0.0 1.0 0.00 0.00 0.00 56 1014.1